HAWK-10C (60575 NORAD) Tracking and Keplerian Element Data

This shows tracking and keplerian element data for the satellite.

Feedback or suggestion? Click here.




ElementValue
Catalog60575
NameHAWK-10C
Epoch Orbit848
Epoch Day286.75430647
Epoch Year2024
RAAN1.2292
Inclination97.7355
Eccentricity0.000239
Argument of Perigee318.7899
Mean Anonmoly41.3139
Mean Motion14.9275065
Decay Rate7.35E-05
L11 60575U 24149DM 24286.75430647 .00007350 00000+0 71650-3 0 9997
L22 60575 97.7355 1.2292 0002390 318.7899 41.3139 14.92750650 8486



Live tracking and technical data element details for HAWK-10C (NORAD 60575). HAWK-10C can be tracked NOW for your location showing map with azimuth and elevation plus other details from your city location.







IsCatalogInMostPopularTable: catalog: 60575, numindb: 5
Update: records affected: 1



GetName: 60575 HAWK-10C

Hit Count: updated at: Fri, 06 Dec 2024 11:54:34 GMT